Погода в Мукдахане

Таиланд     16°32′42″N   104°43′40″E
темп.,
°C
ветер,
м/с
пор.,
м/с
влажн.,
%
обл.,
%
осадки,
мм/ч
давл.,
гПа
погр.,
м
18 мая, вт
вт1801:00+28вюв226885 0.2 100634
04:00+27юв1171100 0.3 100722
07:00+28ю577395 0.3 1009405
10:00+34ююз445198 0.0 10091246
13:00+37ююз333880 0.0 10062601
16:00+35зюз344496 0.2 1004629
19:00+33ююз225084 0.2 100430
22:00+31ююз2255100 0.0 100730
19 мая, ср
ср1901:00+30зюз2657100 0.0 1005222
04:00+29з1164100 0.2 100517
07:00+30ююв4664100 0.4 1007406
10:00+33юз565259 0.0 10081365
13:00+36юз444299 0.1 10052362
16:00+34зюз354796 0.1 1004663
19:00+31юз1154100 0.1 100412
22:00+30ююз2356100 0.1 100643
20 мая, чт
чт2001:00+29ююз386198 0.1 1005221
04:00+28юз1267100 0.2 100422
07:00+29ю3669100 0.6 1006328
10:00+34ююз5549100 0.1 10071352
13:00+38юз4538100 0.1 10032638
16:00+36з344093 0.1 10021074
19:00+33ю484816 0.1 1003299
22:00+28ююз3116729 0.4 1005246
21 мая, пт
пт2101:00+29ююз41167100 0.5 1004305
04:00+28ююз4117248 0.0 1004421
07:00+29ююз4874100 0.8 1006562
10:00+34юз4551100 0.1 10061321
13:00+37юз4540100 0.1 10032395
16:00+35ююз354499 0.0 1001740
19:00+32ю4753100 0.1 1002224
22:00+30ю396323 0.2 1005264
22 мая, сб
сб2201:00+29юз4106875 0.2 1004411
04:00+27ююз387493 0.0 1004317
07:00+28ююз357064 0.0 1006434
10:00+33ююз445475 0.0 10061277
13:00+35зюз444398 0.0 10031919
16:00+35ю4445100 0.0 10011031
19:00+32юз3552100 0.0 1002172
22:00+30ю4961100 0.5 1004315